This demonstration page uses our WeatherBlox Daily Observations layout. Learn more.

Left ArrowRight Arrow

41.86663, -103.66717

Hourly Observations for June 10, 2022

Temp ( °F °C ) Dew Point ( °F °C ) Humidity (%) Winds ( mph kmh ) Pressure ( in mb ) Visibility ( mi km ) Precip ( " mm )
12:53 am 00:53 Clear 59 15 52 11.1 78 78 Calm 29.90 1012 10 16 0.00 0.00
1:53 am 01:53 Clear 57 13.9 51 10.6 81 81 N 7 11 29.89 1012 10 16 0.00 0.00
2:53 am 02:53 Clear 55 12.8 50 10 83 83 W 5 7 29.90 1012 10 16 0.00 0.00
3:53 am 03:53 Clear 53 11.7 49 9.4 86 86 NNW 7 11 29.90 1013 10 16 0.00 0.00
4:53 am 04:53 Clear 53 11.7 49 9.4 86 86 NNW 5 7 29.91 1013 10 16 0.00 0.00
5:53 am 05:53 Sunny 53 11.7 49 9.4 86 86 Calm 29.92 1013 10 16 0.00 0.00
6:53 am 06:53 Sunny 59 15 52 11.1 78 78 Calm 29.92 1013 10 16 0.00 0.00
7:53 am 07:53 Sunny 65 18.3 53 11.7 66 66 Calm 29.92 1013 10 16 0.00 0.00
8:53 am 08:53 Sunny 71 21.7 54 12.2 55 55 SE 5 7 29.91 1013 10 16 0.00 0.00
9:53 am 09:53 Sunny 76 24.4 53 11.7 45 45 SE 10 17 29.89 1012 10 16 0.00 0.00
10:53 am 10:53 Sunny 81 27.2 52 11.1 37 37 SE 8 13 29.87 1011 10 16 0.00 0.00
11:53 am 11:53 Sunny 86 30 48 8.9 27 27 S 9 15 29.83 1010 10 16 0.00 0.00
12:53 pm 12:53 Sunny 86 30 49 9.4 28 28 VRB 5 7 29.80 1009 10 16 0.00 0.00
1:53 pm 13:53 Sunny 90 32.2 47 8.3 23 23 WSW 9 15 29.78 1009 10 16 0.00 0.00
2:53 pm 14:53 Sunny 92 33.3 46 7.8 21 21 WNW 9 15 29.77 1008 10 16 0.00 0.00
3:53 pm 15:53 Sunny 93 33.9 46 7.8 20 20 undefined N/A 29.76 1008 10 16 0.00 0.00
4:53 pm 16:53 Sunny 93 33.9 48 8.9 21 21 WNW 9 15 29.75 1008 10 16 0.00 0.00
5:53 pm 17:53 Sunny 91 32.8 49 9.4 24 24 NW 7 11 29.75 1007 10 16 0.00 0.00
6:53 pm 18:53 Sunny 87 30.6 51 10.6 29 29 ENE 12 19 29.75 1007 10 16 0.00 0.00
7:53 pm 19:53 Sunny 83 28.3 50 10 32 32 NE 8 13 29.75 1008 10 16 0.00 0.00
8:53 pm 20:53 Clear 75 23.9 51 10.6 43 43 NE 5 7 29.76 1008 10 16 0.00 0.00
9:53 pm 21:53 Clear 73 22.8 51 10.6 46 46 ENE 3 6 29.76 1008 10 16 0.00 0.00
10:53 pm 22:53 Clear 68 20 53 11.7 59 59 NNE 7 11 29.76 1008 10 16 0.00 0.00
11:53 pm 23:53 Clear 66 18.9 51 10.6 59 59 ESE 5 7 29.74 1007 10 16 0.00 0.00

Powered by AerisWeather